Weather History for Morris, MN

Change the Weather History Date:

Thursday, September 5, 2013

  Actual Average Record
Temperature  
Mean Temperature 72 °F -  
Max Temperature 84 °F 74 °F 91 °F (2007)
Min Temperature 60 °F 52 °F 39 °F (2011)
Cooling Degree Days 7    
Growing Degree Days 22 (Base 50)    
Moisture  
Dew Point 62 °F    
Average Humidity 72    
Maximum Humidity 88    
Minimum Humidity 51    
Precipitation  
Precipitation 0.00 in - - ()
Sea Level Pressure  
Sea Level Pressure 30.12 in    
Wind  
Wind Speed 9 mph (SE)    
Max Wind Speed 14 mph    
Max Gust Speed 20 mph    
Visibility 10 miles    
Events Thunderstorm    
Averages and records for this station are not official NWS values.
T = Trace of Precipitation, MM = Missing Value Source: NWS Daily Summary

Daily Weather History Graph

Daily Weather History Graph

Search for Another Location

Airport:

Trip Planner

Search our weather history database for the weather conditions in past years. The results will help you decide how hot, cold, wet, or windy it might be!

Date:

Astronomy

Sep. 05, 2013 Rise Set
Actual Time 6:50 AM CDT 7:53 PM CDT
Civil Twilight 6:20 AM CDT 8:23 PM CDT
Nautical Twilight 5:43 AM CDT 9:00 PM CDT
Astronomical Twilight 5:05 AM CDT 9:38 PM CDT
Moon 7:06 AM CDT (9/5) 7:41 PM CDT (9/5)
Length of Visible Light 14h 03m
Length of Day
13h 03m
Waxing Crescent, 0% of the Moon is Illuminated
Sep 5
Waxing Crescent
Sep 12
First Quarter
Sep 19
Full
Sep 26
Last Quarter
Oct 4
New

Hourly Weather History & Observations

Time (CDT) Temp. Heat Index Dew Point Humidity Pressure Visibility Wind Dir Wind Speed Gust Speed Precip Events Conditions
12:07 AM 66.2 °F - 60.8 °F 83% 30.15 in 10.0 mi East 9.2 mph - N/A   Clear
12:28 AM 66.2 °F - 60.8 °F 83% 30.15 in 10.0 mi East 8.1 mph - N/A   Clear
12:47 AM 66.2 °F - 59.0 °F 78% 30.15 in 10.0 mi East 9.2 mph - N/A   Clear
1:08 AM 64.4 °F - 57.2 °F 77% 30.15 in 10.0 mi East 9.2 mph - N/A   Clear
1:27 AM 64.4 °F - 57.2 °F 77% 30.15 in 10.0 mi East 9.2 mph - N/A   Clear
1:48 AM 64.4 °F - 57.2 °F 77% 30.15 in 10.0 mi East 9.2 mph - N/A   Clear
2:07 AM 62.6 °F - 57.2 °F 82% 30.15 in 10.0 mi East 8.1 mph - N/A   Clear
2:27 AM 62.6 °F - 57.2 °F 82% 30.16 in 10.0 mi East 9.2 mph - N/A   Clear
2:48 AM 62.6 °F - 57.2 °F 82% 30.16 in 10.0 mi East 9.2 mph - N/A   Clear
3:07 AM 62.6 °F - 57.2 °F 82% 30.16 in 10.0 mi East 8.1 mph - N/A   Clear
3:28 AM 62.6 °F - 57.2 °F 82% 30.16 in 10.0 mi East 8.1 mph - N/A   Clear
3:47 AM 62.6 °F - 57.2 °F 82% 30.16 in 10.0 mi ESE 8.1 mph - N/A   Clear
4:07 AM 62.6 °F - 57.2 °F 82% 30.16 in 10.0 mi East 6.9 mph - N/A   Clear
4:27 AM 60.8 °F - 57.2 °F 88% 30.17 in 10.0 mi East 6.9 mph - N/A   Scattered Clouds
4:48 AM 62.6 °F - 57.2 °F 82% 30.16 in 10.0 mi East 6.9 mph - N/A   Overcast
5:07 AM 62.6 °F - 57.2 °F 82% 30.16 in 10.0 mi ESE 8.1 mph - N/A   Mostly Cloudy
5:27 AM 62.6 °F - 57.2 °F 82% 30.16 in 10.0 mi East 6.9 mph - N/A   Mostly Cloudy
5:47 AM 62.6 °F - 57.2 °F 82% 30.17 in 10.0 mi East 6.9 mph - N/A   Mostly Cloudy
6:07 AM 60.8 °F - 57.2 °F 88% 30.17 in 10.0 mi East 8.1 mph - N/A   Clear
6:27 AM 60.8 °F - 57.2 °F 88% 30.17 in 10.0 mi ESE 6.9 mph - N/A   Clear
6:47 AM 60.8 °F - 57.2 °F 88% 30.17 in 10.0 mi ESE 8.1 mph - N/A   Clear
7:07 AM 62.6 °F - 55.4 °F 77% 30.17 in 10.0 mi ESE 8.1 mph - N/A   Clear
7:27 AM 62.6 °F - 55.4 °F 77% 30.17 in 10.0 mi ESE 8.1 mph - N/A   Clear
7:48 AM 62.6 °F - 55.4 °F 77% 30.17 in 10.0 mi ESE 10.4 mph - N/A   Clear
8:07 AM 64.4 °F - 55.4 °F 73% 30.17 in 10.0 mi ESE 9.2 mph - N/A   Clear
8:28 AM 66.2 °F - 55.4 °F 68% 30.16 in 10.0 mi ESE 11.5 mph 16.1 mph N/A   Clear
8:47 AM 68.0 °F - 57.2 °F 68% 30.17 in 10.0 mi ESE 10.4 mph - N/A   Clear
9:07 AM 69.8 °F - 57.2 °F 64% 30.17 in 10.0 mi ESE 11.5 mph - N/A   Clear
9:27 AM 71.6 °F - 57.2 °F 60% 30.18 in 10.0 mi SE 12.7 mph - N/A   Clear
9:47 AM 71.6 °F - 60.8 °F 69% 30.18 in 10.0 mi SE 12.7 mph - N/A   Clear
10:07 AM 71.6 °F - 60.8 °F 69% 30.18 in 10.0 mi SE 13.8 mph 18.4 mph N/A   Clear
10:27 AM 73.4 °F - 60.8 °F 65% 30.17 in 10.0 mi ESE 12.7 mph - N/A   Clear
10:48 AM 75.2 °F - 62.6 °F 65% 30.18 in 10.0 mi ESE 10.4 mph - N/A   Clear
11:07 AM 75.2 °F - 62.6 °F 65% 30.17 in 10.0 mi ESE 12.7 mph - N/A   Clear
11:28 AM 77.0 °F - 64.4 °F 65% 30.17 in 10.0 mi SE 10.4 mph - N/A   Clear
11:47 AM 75.2 °F - 64.4 °F 69% 30.17 in 10.0 mi ESE 10.4 mph - N/A   Clear
12:07 PM 78.8 °F - 64.4 °F 61% 30.17 in 10.0 mi SE 9.2 mph - N/A   Clear
12:27 PM 80.6 °F 82.3 °F 64.4 °F 58% 30.16 in 10.0 mi SE 8.1 mph - N/A   Clear
12:47 PM 80.6 °F 82.7 °F 66.2 °F 61% 30.15 in 10.0 mi SE 8.1 mph - N/A   Clear
1:08 PM 82.4 °F 84.6 °F 66.2 °F 58% 30.14 in 10.0 mi SE 10.4 mph - N/A   Clear
1:27 PM 82.4 °F 84.6 °F 66.2 °F 58% 30.13 in 10.0 mi SE 10.4 mph - N/A   Clear
1:48 PM 82.4 °F 83.9 °F 64.4 °F 54% 30.13 in 10.0 mi SE 9.2 mph 16.1 mph N/A   Clear
2:07 PM 84.2 °F 86.6 °F 66.2 °F 55% 30.12 in 10.0 mi SE 12.7 mph - N/A   Clear
2:27 PM 84.2 °F 86.6 °F 66.2 °F 55% 30.11 in 10.0 mi SSE 10.4 mph 17.3 mph N/A   Clear
2:47 PM 84.2 °F 86.6 °F 66.2 °F 55% 30.11 in 10.0 mi ESE 12.7 mph 17.3 mph N/A   Clear
3:07 PM 84.2 °F 85.6 °F 64.4 °F 51% 30.10 in 10.0 mi SE 13.8 mph - N/A   Clear
3:27 PM 84.2 °F 85.6 °F 64.4 °F 51% 30.10 in 10.0 mi SE 12.7 mph 18.4 mph N/A   Clear
3:47 PM 84.2 °F 85.6 °F 64.4 °F 51% 30.10 in 10.0 mi SSE 13.8 mph 18.4 mph N/A   Clear
4:08 PM 84.2 °F 86.6 °F 66.2 °F 55% 30.09 in 10.0 mi SSE 13.8 mph 19.6 mph N/A   Clear
4:27 PM 84.2 °F 86.6 °F 66.2 °F 55% 30.09 in 10.0 mi SE 13.8 mph 17.3 mph N/A   Clear
4:47 PM 82.4 °F 84.6 °F 66.2 °F 58% 30.09 in 10.0 mi SSE 10.4 mph - N/A   Clear
5:07 PM 84.2 °F 86.6 °F 66.2 °F 55% 30.08 in 10.0 mi SSE 13.8 mph - N/A   Clear
5:28 PM 80.6 °F 82.7 °F 66.2 °F 61% 30.08 in 10.0 mi SSE 9.2 mph - N/A   Scattered Clouds
5:47 PM 80.6 °F 82.7 °F 66.2 °F 61% 30.09 in 10.0 mi SSE 6.9 mph - N/A Thunderstorm Thunderstorm
6:08 PM 78.8 °F - 66.2 °F 65% 30.08 in 10.0 mi SE 9.2 mph - N/A   Clear
6:27 PM 78.8 °F - 66.2 °F 65% 30.07 in 10.0 mi SE 9.2 mph - N/A   Clear
6:47 PM 77.0 °F - 66.2 °F 69% 30.07 in 10.0 mi SSE 9.2 mph - N/A   Clear
7:07 PM 77.0 °F - 66.2 °F 69% 30.06 in 10.0 mi SE 12.7 mph - N/A   Clear
7:27 PM 77.0 °F - 66.2 °F 69% 30.05 in 10.0 mi SSE 11.5 mph - N/A Thunderstorm Clear
7:47 PM 75.2 °F - 66.2 °F 73% 30.05 in 10.0 mi SSE 10.4 mph - N/A Thunderstorm Clear
8:07 PM 75.2 °F - 64.4 °F 69% 30.05 in 10.0 mi SSE 9.2 mph - N/A Thunderstorm Thunderstorm
8:28 PM 73.4 °F - 64.4 °F 73% 30.05 in 10.0 mi SSE 9.2 mph - N/A Thunderstorm Clear
8:47 PM 73.4 °F - 64.4 °F 73% 30.05 in 10.0 mi SSE 9.2 mph - N/A   Clear
9:07 PM 73.4 °F - 66.2 °F 78% 30.05 in 10.0 mi SE 11.5 mph 17.3 mph N/A   Clear
9:27 PM 75.2 °F - 66.2 °F 73% 30.05 in 10.0 mi SE 11.5 mph - N/A   Scattered Clouds
9:47 PM 73.4 °F - 68.0 °F 83% 30.05 in 10.0 mi SE 8.1 mph - N/A Thunderstorm Clear
10:07 PM 71.6 °F - 68.0 °F 88% 30.05 in 10.0 mi SE 8.1 mph - N/A Thunderstorm Clear
10:28 PM 71.6 °F - 68.0 °F 88% 30.05 in 10.0 mi SE 8.1 mph - N/A   Clear
10:47 PM 71.6 °F - 66.2 °F 83% 30.05 in 10.0 mi SE 6.9 mph - N/A   Clear
11:07 PM 71.6 °F - 66.2 °F 83% 30.05 in 10.0 mi SE 8.1 mph - N/A   Clear
11:27 PM 69.8 °F - 66.2 °F 88% 30.05 in 10.0 mi SE 8.1 mph - N/A   Clear
11:47 PM 69.8 °F - 66.2 °F 88% 30.04 in 10.0 mi SE 6.9 mph - N/A   Clear